• In Hungary
  • List of Countries
  • For 7 days
  • Water Temperature
  • Satellite Maps
  • Weather Map
  • News
  • Weather Widgets
  • user-avatar
    Login

    Hourly Weather SanFrancisco

    Today, 20 February, Tuesday

    Time Temperature Precipitation Wind Pressure Humidity
    00:00 +21°C° 0 mm 5 mps 711 mmHg 79%
    01:00 +20°C° 0 mm 5 mps 711 mmHg 81%
    02:00 +20°C° 0 mm 4 mps 710 mmHg 82%
    03:00 +20°C° 0 mm 4 mps 710 mmHg 84%
    04:00 +19°C° 0 mm 4 mps 710 mmHg 85%
    05:00 +20°C° 0 mm 4 mps 711 mmHg 83%
    06:00 +20°C° 0 mm 4 mps 711 mmHg 81%
    07:00 +20°C° 0 mm 4 mps 711 mmHg 79%
    08:00 +23°C° 0 mm 5 mps 712 mmHg 68%
    09:00 +26°C° 0 mm 6 mps 713 mmHg 56%
    10:00 +28°C° 0 mm 6 mps 713 mmHg 44%
    11:00 +30°C° 0 mm 7 mps 713 mmHg 42%
    12:00 +32°C° 0 mm 7 mps 712 mmHg 39%
    13:00 +33°C° 0 mm 7 mps 712 mmHg 36%
    14:00 +33°C° 0 mm 7 mps 711 mmHg 37%
    15:00 +32°C° 0 mm 7 mps 711 mmHg 39%
    16:00 +32°C° 0 mm 7 mps 710 mmHg 40%
    17:00 +29°C° 0 mm 7 mps 710 mmHg 47%
    18:00 +27°C° 0 mm 7 mps 710 mmHg 54%
    19:00 +24°C° 0 mm 6 mps 710 mmHg 61%
    20:00 +23°C° 0 mm 6 mps 711 mmHg 66%
    21:00 +22°C° 0 mm 5 mps 711 mmHg 71%
    22:00 +21°C° 0 mm 5 mps 711 mmHg 77%
    23:00 +21°C° 0 mm 4 mps 711 mmHg 79%

    Tomorrow, 21 February, Wednesday

    Time Temperature Precipitation Wind Pressure Humidity
    00:00 +21°C° 0 mm 4 mps 711 mmHg 81%
    01:00 +20°C° 0 mm 3 mps 711 mmHg 84%
    02:00 +20°C° 0 mm 3 mps 711 mmHg 83%
    03:00 +20°C° 0 mm 4 mps 711 mmHg 82%
    04:00 +21°C° 0 mm 4 mps 711 mmHg 81%
    05:00 +21°C° 0 mm 4 mps 711 mmHg 80%
    06:00 +21°C° 0 mm 4 mps 711 mmHg 79%
    07:00 +21°C° 0 mm 4 mps 712 mmHg 78%
    08:00 +23°C° 0 mm 4 mps 712 mmHg 70%
    09:00 +25°C° 0 mm 5 mps 713 mmHg 62%
    10:00 +27°C° 0 mm 5 mps 714 mmHg 54%
    11:00 +28°C° 0 mm 6 mps 713 mmHg 50%
    12:00 +30°C° 0 mm 6 mps 712 mmHg 46%
    13:00 +32°C° 0 mm 6 mps 712 mmHg 42%
    14:00 +30°C° 0 mm 6 mps 711 mmHg 44%
    15:00 +30°C° 0 mm 5 mps 710 mmHg 46%
    16:00 +29°C° 0 mm 5 mps 710 mmHg 48%
    17:00 +28°C° 0 mm 5 mps 710 mmHg 54%
    18:00 +26°C° 0 mm 5 mps 710 mmHg 59%
    19:00 +25°C° 0 mm 5 mps 710 mmHg 65%
    20:00 +23°C° 0 mm 5 mps 711 mmHg 70%
    21:00 +22°C° 0 mm 4 mps 711 mmHg 74%
    22:00 +21°C° 0 mm 4 mps 712 mmHg 78%
    23:00 +21°C° 0 mm 4 mps 711 mmHg 79%

    Day after tomorrow, 22 February, Thursday

    Time Temperature Precipitation Wind Pressure Humidity
    00:00 +21°C° 0 mm 4 mps 711 mmHg 80%
    01:00 +21°C° 0 mm 4 mps 711 mmHg 82%
    02:00 +21°C° 0 mm 4 mps 711 mmHg 82%
    03:00 +21°C° 0 mm 4 mps 711 mmHg 82%
    04:00 +20°C° 0 mm 3 mps 710 mmHg 82%
    05:00 +21°C° 0 mm 3 mps 711 mmHg 82%
    06:00 +21°C° 0 mm 4 mps 711 mmHg 81%
    07:00 +21°C° 0 mm 4 mps 712 mmHg 81%
    08:00 +23°C° 0 mm 4 mps 712 mmHg 70%
    09:00 +26°C° 0 mm 5 mps 713 mmHg 59%
    10:00 +29°C° 0 mm 5 mps 714 mmHg 48%
    11:00 +30°C° 0 mm 5 mps 713 mmHg 44%
    12:00 +32°C° 0 mm 5 mps 712 mmHg 40%
    13:00 +33°C° 0 mm 5 mps 711 mmHg 36%
    14:00 +32°C° 0 mm 5 mps 711 mmHg 38%
    15:00 +32°C° 0 mm 5 mps 710 mmHg 40%
    16:00 +30°C° 0 mm 5 mps 710 mmHg 42%
    17:00 +28°C° 0 mm 5 mps 710 mmHg 50%
    18:00 +27°C° 0 mm 5 mps 710 mmHg 57%
    19:00 +25°C° 0 mm 5 mps 710 mmHg 64%
    20:00 +23°C° 0 mm 4 mps 711 mmHg 69%
    21:00 +22°C° 0 mm 4 mps 711 mmHg 74%
    22:00 +21°C° 0 mm 4 mps 711 mmHg 79%
    23:00 +21°C° 0 mm 3 mps 711 mmHg 81%

    23 February, Friday

    Time Temperature Precipitation Wind Pressure Humidity
    00:00 +21°C° 0 mm 3 mps 711 mmHg 83%
    01:00 +20°C° 0 mm 3 mps 710 mmHg 84%
    02:00 +20°C° 0 mm 3 mps 710 mmHg 85%
    03:00 +20°C° 0 mm 2 mps 710 mmHg 86%
    04:00 +20°C° 0 mm 2 mps 710 mmHg 87%
    05:00 +20°C° 0 mm 2 mps 710 mmHg 85%
    06:00 +20°C° 0 mm 2 mps 711 mmHg 83%
    07:00 +21°C° 0 mm 2 mps 711 mmHg 81%
    08:00 +24°C° 0 mm 3 mps 712 mmHg 70%
    09:00 +26°C° 0 mm 3 mps 712 mmHg 59%
    10:00 +28°C° 0 mm 4 mps 712 mmHg 48%
    11:00 +30°C° 0 mm 4 mps 712 mmHg 43%
    12:00 +32°C° 0 mm 4 mps 711 mmHg 38%
    13:00 +33°C° 0 mm 4 mps 710 mmHg 33%
    14:00 +32°C° 0 mm 4 mps 710 mmHg 36%
    15:00 +32°C° 0 mm 4 mps 709 mmHg 39%
    16:00 +30°C° 0 mm 4 mps 709 mmHg 42%
    17:00 +28°C° 0.1 mm 4 mps 709 mmHg 50%
    18:00 +27°C° 0.1 mm 4 mps 709 mmHg 58%
    19:00 +25°C° 0.1 mm 5 mps 709 mmHg 66%
    20:00 +23°C° 0 mm 4 mps 710 mmHg 70%
    21:00 +22°C° 0 mm 4 mps 710 mmHg 75%
    22:00 +22°C° 0 mm 3 mps 710 mmHg 79%
    23:00 +21°C° 0 mm 3 mps 710 mmHg 81%

    24 February, Saturday

    Time Temperature Precipitation Wind Pressure Humidity
    00:00 +21°C° 0 mm 3 mps 709 mmHg 82%
    01:00 +21°C° 0 mm 3 mps 709 mmHg 84%
    02:00 +20°C° 0 mm 3 mps 709 mmHg 84%
    03:00 +20°C° 0 mm 2 mps 709 mmHg 85%
    04:00 +20°C° 0 mm 2 mps 709 mmHg 85%
    05:00 +20°C° 0 mm 2 mps 709 mmHg 83%
    06:00 +21°C° 0 mm 2 mps 710 mmHg 81%
    07:00 +21°C° 0 mm 2 mps 710 mmHg 79%
    08:00 +24°C° 0 mm 2 mps 710 mmHg 68%
    09:00 +26°C° 0 mm 3 mps 711 mmHg 58%
    10:00 +29°C° 0 mm 3 mps 711 mmHg 47%
    11:00 +30°C° 0 mm 3 mps 711 mmHg 42%
    12:00 +31°C° 0 mm 3 mps 710 mmHg 37%
    13:00 +34°C° 0 mm 3 mps 710 mmHg 32%
    14:00 +33°C° 0 mm 3 mps 709 mmHg 34%
    15:00 +33°C° 0 mm 3 mps 709 mmHg 36%
    16:00 +31°C° 0 mm 3 mps 708 mmHg 38%
    17:00 +29°C° 0 mm 4 mps 708 mmHg 47%
    18:00 +27°C° 0 mm 4 mps 709 mmHg 56%
    19:00 +25°C° 0 mm 4 mps 709 mmHg 65%
    20:00 +25°C° 0 mm 4 mps 709 mmHg 69%
    21:00 +23°C° 0 mm 4 mps 710 mmHg 73%
    22:00 +22°C° 0 mm 3 mps 710 mmHg 77%
    23:00 +22°C° 0 mm 3 mps 710 mmHg 79%

    25 February, Sunday

    Time Temperature Precipitation Wind Pressure Humidity
    00:00 +22°C° 0 mm 3 mps 709 mmHg 80%
    01:00 +21°C° 0 mm 3 mps 709 mmHg 82%
    02:00 +21°C° 0 mm 3 mps 709 mmHg 83%
    03:00 +21°C° 0 mm 3 mps 709 mmHg 83%
    04:00 +21°C° 0 mm 2 mps 709 mmHg 84%
    05:00 +21°C° 0 mm 2 mps 709 mmHg 83%
    06:00 +21°C° 0 mm 2 mps 710 mmHg 81%
    07:00 +21°C° 0 mm 2 mps 710 mmHg 80%
    08:00 +25°C° 0 mm 2 mps 711 mmHg 69%
    09:00 +27°C° 0 mm 3 mps 711 mmHg 58%
    10:00 +29°C° 0 mm 3 mps 712 mmHg 48%
    11:00 +31°C° 0 mm 2 mps 711 mmHg 42%
    12:00 +32°C° 0 mm 2 mps 711 mmHg 37%
    13:00 +35°C° 0 mm 2 mps 710 mmHg 32%
    14:00 +34°C° 0 mm 2 mps 709 mmHg 33%
    15:00 +34°C° 0 mm 2 mps 709 mmHg 33%
    16:00 +33°C° 0 mm 3 mps 708 mmHg 34%
    17:00 +30°C° 0 mm 3 mps 708 mmHg 42%
    18:00 +29°C° 0 mm 4 mps 709 mmHg 50%
    19:00 +27°C° 0 mm 4 mps 709 mmHg 59%
    20:00 +26°C° 0 mm 4 mps 709 mmHg 64%
    21:00 +25°C° 0 mm 3 mps 709 mmHg 69%
    22:00 +24°C° 0 mm 3 mps 710 mmHg 74%
    23:00 +24°C° 0 mm 3 mps 709 mmHg 76%
    Show more